Regional Weather Roundup
Issued by NWS San Diego, CA

Home | Current Version | Previous Version | Text Only | Print | Product List | Glossary On
Versions: 1 2 3 4 5 6 7 8 9 10 11 12 13 14 15 16 17 18 19 20 21 22 23 24 25 26 27 28 29 30 31 32 33 34 35 36 37 38 39 40 41 42 43 44 45 46 47 48 49 50
000
ASUS46 KSGX 110311
RWRSGX

SAN DIEGO HOURLY WEATHER ROUNDUP
NATIONAL WEATHER SERVICE SAN DIEGO CA
700 PM PST WED FEB 10 2016

NOTE: "FAIR" INDICATES FEW OR NO CLOUDS BELOW 12,000 FEET WITH NO
SIGNIFICANT WEATHER AND/OR OBSTRUCTIONS TO VISIBILITY.

CAZ042-043-060-061-PZZ750-775-110400-

GREATER SAN DIEGO AREA

CITY           SKY/WX    TMP DP  RH WIND       PRES   REMARKS
LINDBERGH FLD  PTCLDY    72  30  21 CALM      30.10R
POINT LOMA       N/A     71  18  13 NW2         N/A
NATIONAL CITY    N/A     67  38  34 CALM      30.09R
CHULA VISTA      N/A     66  39  37 CALM      30.01R
IMPERIAL BEACH PTCLDY    63  36  36 CALM      30.09S
BROWN FIELD    CLEAR     66  26  22 CALM      30.09S
MIRAMAR MCAS   PTCLDY    63  37  38 E5        30.09S
MONTGOMERY FLD CLEAR     69  29  22 CALM      30.10R

$$

NORTH SAN DIEGO COUNTY

CITY           SKY/WX    TMP DP  RH WIND       PRES   REMARKS
CAMP PENDLETON PTCLDY    62  40  44 NE3       30.08R
OCEANSIDE AP   CLEAR     65  32  29 CALM      30.08R
OCEANSIDE HBR    N/A     68  36  30 N3        30.10R
VISTA            N/A     67  37  33 CALM      30.08R
CARLSBAD       CLEAR     70  30  22 CALM      30.08S
DEL MAR          N/A     64  35  33 CALM      30.11R
FALLBROOK        N/A     71  32  23 CALM      30.07R
ESCONDIDO        N/A     72  34  25 CALM      30.10R
SAN MARCOS       N/A     71  32  23 CALM      30.07R
POWAY            N/A     64  37  36 CALM      30.11R

$$

EAST SAN DIEGO COUNTY

CITY           SKY/WX    TMP DP  RH WIND       PRES   REMARKS
RAMONA         CLEAR     58  38  47 CALM      30.13R
SANTEE LAKES     N/A     63  38  40 NW3       30.09R
LA MESA          N/A     70  32  25 CALM      30.02S
JAMUL            N/A     63  37  37 CALM      30.10S
DESCANSO N       N/A     53  22  29 CALM      30.01R
MT. LAGUNA OBS   N/A     56   0  10 E9        29.85S
CAMPO            N/A     56  22  26 NE9       30.16R

$$

ORANGE COUNTY AND THE LOS ANGELES BASIN

CITY           SKY/WX    TMP DP  RH WIND       PRES   REMARKS
JOHN WAYNE AP  CLEAR     69  34  27 CALM      30.08S
LAGUNA BEACH     N/A     62  36  38 NW2       30.04R
LAKE FOREST FR   N/A     69  34  27 CALM      29.98R
HUNTINGTON BCH   N/A     60  50  68 CALM      30.10R
FULLERTON      CLEAR     69  38  32 CALM      30.08R
LONG BEACH     CLEAR     68  39  34 N5        30.09R
L.A. AP        CLEAR     65  44  46 W7        30.09R
L.A. DOWNTOWN  CLEAR     68  39  34 CALM      30.08S

$$

THE INLAND EMPIRE

CITY           SKY/WX    TMP DP  RH WIND       PRES   REMARKS
CORONA         CLEAR     73  34  23 W5        30.10R
CHINO          CLEAR     70  37  29 CALM      30.11R
ONTARIO        PTCLDY    72  35  25 CALM      30.10R
SAN BERNARDINO CLEAR    N/A N/A N/A E5        30.12R
RIVERSIDE AP   CLEAR     74  33  22 W3        30.11R
MORENO VALLEY    N/A     73  32  22 CALM      28.22R
MARCH ARB      CLEAR     65  21  18 CALM      30.13R
HORSETHIEF CYN   N/A     69  22  17 W6        30.13R
PERRIS           N/A     73  28  19 NE5       30.13R
HEMET EAST       N/A     69  17  14 CALM      30.02R
FRENCH VALLEY  FAIR      64  36  34 E7        30.13R
TEMECULA         N/A     71  40  32 CALM      30.06R

$$

SAN BERNARDINO AND RIVERSIDE COUNTY MOUNTAINS

CITY           SKY/WX    TMP DP  RH WIND       PRES   REMARKS
BIG BEAR AP    CLEAR     34  21  60 CALM      30.41R
PINE COVE        N/A     56  22  26 CALM      30.12S

$$

SOUTHERN DESERT INCLUDING THE COACHELLA VALLEY

CITY           SKY/WX    TMP DP  RH WIND       PRES   REMARKS
PALM SPRINGS   CLEAR     71  34  25 N8        30.14R
THOUSAND PALMS   N/A     71  29  21 N2        30.10R
PALM DESERT      N/A     72  37  27 CALM        N/A
THERMAL        CLEAR     60  33  36 N3        30.08S
BLYTHE         PTCLDY    72  29  20 NW5       30.12R
IMPERIAL AP    MOCLDY    70  32  24 CALM      30.08S
EL CENTRO NAS  MOCLDY    70  24  17 CALM      30.10S
YUMA AZ        PTCLDY    73  25  16 N7        30.09
MEXICALI       MOCLDY    68  30  24 NW7       30.09F

$$

UPPER DESERT

CITY           SKY/WX    TMP DP  RH WIND       PRES   REMARKS
VICTORVILLE AP CLEAR     55  19  24 CALM      30.24S
HESPERIA         N/A     58  29  33 CALM      30.35R
APPLE VALLEY     N/A     60  22  22 CALM      30.20S
PALMDALE       CLEAR     53  30  41 SW6       30.23R
LANCASTER      CLEAR     49  35  58 W6        30.23R
EDWARDS AFB    CLEAR     55  25  31 NE5       30.20R
DAGGETT        CLEAR     63  22  20 CALM      30.22R
29 PALMS N     CLEAR     61  20  20 W3        30.27R
NEEDLES        CLEAR     66  25  21 NW9       30.16S

$$

REGIONAL REPORTS

CITY           SKY/WX    TMP DP  RH WIND       PRES   REMARKS
SANTA BARBARA  CLEAR     57  55  93 SE3       30.08R
SANDBERG       CLEAR    N/A N/A N/A E13       30.30R
LAS VEGAS NV   CLEAR     65  23  20 CALM      30.19S
PHOENIX AZ     MOCLDY    76  26  15 CALM      30.10R
TIJUANA        CLEAR     66  21  18 CALM      30.12R
ENSENADA NW      N/A     67  32  27 NE6       30.06R

$$

OFFSHORE ISLANDS

CITY           SKY/WX    TMP DP  RH WIND       PRES   REMARKS
CATALINA ARPT  CLEAR     70  22  16 W8        30.16R
SAN NICOLAS IS CLEAR    N/A N/A N/A W8        30.10S

$$

MARINE AND OFFSHORE BUOY REPORTS

STATION/POSITION SKY/WX   TEMP    WIND        PRES    SWELL
                          AIR SEA DIR/SP/G            HT/PER/DIR
                          (F)     (DEG/KT/KT) (MB)    (FT/S/D)
TANNER BANKS               60 60  330/  8/ 10 1019.1R   5/300/13
S CLEMENTE BASIN           63 62  310/  8/  8 1018.3S   3/280/13
SAN NICOLAS IS.               59                N/A     5/280/13
SO. S. ROSA ISLA           59 58              1018.2S
W. S. BARBARA CH           59 57  310/ 14/ 16 1018.0F   3/290/13
M. S. BARBARA CH           59 59  240/  8/ 10 1019.0S
S. MONICA BASIN            62 62  350/  4/  6 1019.1R   2/270/11
DANA POINT                    62                N/A     2/270/13
OCEANSIDE OFFSHR              62                N/A     2/250/14
TORREY PINES OTR              62                N/A     2/270/13
LA JOLLA 1                 67 60                N/A
SAN DIEGO BAY                 61                N/A
POINT LOMA SOUTH              61                N/A     3/270/13

$$




USA.gov is the U.S. government's official web portal to all federal, state and local government web resources and services.